Weather History for Copper Mountain, CO

Change the Weather History Date:

Friday, April 18, 2014

  Actual Average (KLXV) Record (KLXV)
Temperature  
Mean Temperature 40 °F -  
Max Temperature 46 °F 44 °F 57 °F (1981)
Min Temperature 33 °F 19 °F 1 °F (2013)
Degree Days  
Heating Degree Days 26 33  
Month to date heating degree days 642  
Since 1 July heating degree days 9625  
Cooling Degree Days 0 0  
Month to date cooling degree days 0  
Year to date cooling degree days 0  
Moisture  
Dew Point 18 °F    
Average Humidity 43    
Maximum Humidity 56    
Minimum Humidity 27    
Precipitation  
Precipitation 0.00 in 0.04 in 0.28 in (1992)
Month to date precipitation 0.65  
Year to date precipitation 2.91  
Sea Level Pressure  
Sea Level Pressure 30.31 in    
Wind  
Wind Speed 13 mph (SW)    
Max Wind Speed 33 mph    
Max Gust Speed 39 mph    
Visibility 10 miles    
Events      
T = Trace of Precipitation, MM = Missing Value Source: NWS Daily Summary

Daily Weather History Graph

Daily Weather History Graph

Search for Another Location

Airport:

Trip Planner

Search our weather history database for the weather conditions in past years. The results will help you decide how hot, cold, wet, or windy it might be!

Date:

Astronomy

Apr. 18, 2014 Rise Set
Actual Time 6:22 AM MDT 7:45 PM MDT
Civil Twilight 5:54 AM MDT 8:13 PM MDT
Nautical Twilight 5:21 AM MDT 8:47 PM MDT
Astronomical Twilight 4:46 AM MDT 9:22 PM MDT
Moon 11:32 PM MDT (4/18) 8:48 AM MDT (4/18)
Length of Visible Light 14h 18m
Length of Day
13h 22m
Waning Gibbous, 86% of the Moon is Illuminated
Apr 18
Waning Gibbous
Apr 22
Last Quarter
Apr 29
New
May 6
First Quarter
May 14
Full

Hourly Weather History & Observations

Time (MDT) Temp. Windchill Dew Point Humidity Pressure Visibility Wind Dir Wind Speed Gust Speed Precip Events Conditions
12:16 AM 33.8 °F 24.3 °F 14.0 °F 44% 30.29 in 10.0 mi SW 13.8 mph 24.2 mph N/A   Clear
12:36 AM 33.8 °F 26.4 °F 14.0 °F 44% 30.30 in 10.0 mi SSW 9.2 mph 16.1 mph N/A   Clear
12:56 AM 33.8 °F 24.3 °F 14.0 °F 44% 30.29 in 10.0 mi SW 13.8 mph 20.7 mph N/A   Clear
1:16 AM 33.8 °F 25.8 °F 14.0 °F 44% 30.30 in 10.0 mi SSW 10.4 mph 21.9 mph N/A   Clear
1:36 AM 33.8 °F 24.8 °F 14.0 °F 44% 30.31 in 10.0 mi SW 12.7 mph 18.4 mph N/A   Clear
1:56 AM 33.8 °F 24.8 °F 14.0 °F 44% 30.31 in 10.0 mi SW 12.7 mph 23.0 mph N/A   Clear
2:16 AM 33.8 °F 25.3 °F 14.0 °F 44% 30.31 in 10.0 mi SW 11.5 mph 23.0 mph N/A   Clear
2:36 AM 33.8 °F 25.3 °F 15.8 °F 48% 30.31 in 10.0 mi SSW 11.5 mph 18.4 mph N/A   Clear
2:56 AM 33.8 °F 24.3 °F 17.6 °F 52% 30.31 in 10.0 mi SW 13.8 mph 20.7 mph N/A   Clear
3:16 AM 33.8 °F 24.8 °F 17.6 °F 52% 30.31 in 10.0 mi SW 12.7 mph 24.2 mph N/A   Clear
3:36 AM 33.8 °F 25.8 °F 17.6 °F 52% 30.31 in 10.0 mi SSW 10.4 mph 17.3 mph N/A   Clear
3:56 AM 33.8 °F 25.3 °F 17.6 °F 52% 30.31 in 10.0 mi SSW 11.5 mph 17.3 mph N/A   Clear
4:16 AM 33.8 °F 26.4 °F 17.6 °F 52% 30.31 in 10.0 mi SSW 9.2 mph 19.6 mph N/A   Clear
4:36 AM 33.8 °F 25.8 °F 17.6 °F 52% 30.32 in 10.0 mi SSW 10.4 mph 18.4 mph N/A   Clear
4:56 AM 33.8 °F 24.8 °F 17.6 °F 52% 30.32 in 10.0 mi South 12.7 mph 19.6 mph N/A   Clear
5:16 AM 33.8 °F 23.9 °F 17.6 °F 52% 30.32 in 10.0 mi South 15.0 mph 20.7 mph N/A   Clear
5:36 AM 33.8 °F 23.9 °F 17.6 °F 52% 30.33 in 10.0 mi South 15.0 mph 19.6 mph N/A   Clear
5:56 AM 33.8 °F 24.3 °F 17.6 °F 52% 30.32 in 10.0 mi South 13.8 mph 23.0 mph N/A   Clear
6:16 AM 33.8 °F 23.9 °F 17.6 °F 52% 30.33 in 10.0 mi South 15.0 mph - N/A   Clear
6:36 AM 33.8 °F 22.5 °F 17.6 °F 52% 30.33 in 10.0 mi South 19.6 mph - N/A   Clear
6:56 AM 33.8 °F 25.3 °F 19.4 °F 56% 30.33 in 10.0 mi SSW 11.5 mph 18.4 mph N/A   Clear
7:16 AM 35.6 °F 28.0 °F 19.4 °F 52% 30.34 in 10.0 mi SSW 10.4 mph 20.7 mph N/A   Clear
7:36 AM 35.6 °F 28.0 °F 19.4 °F 52% 30.34 in 10.0 mi SSW 10.4 mph 19.6 mph N/A   Clear
7:56 AM 35.6 °F 27.1 °F 19.4 °F 52% 30.34 in 10.0 mi South 12.7 mph 18.4 mph N/A   Clear
8:16 AM 35.6 °F 27.1 °F 19.4 °F 52% 30.35 in 10.0 mi South 12.7 mph - N/A   Clear
8:36 AM 37.4 °F 28.9 °F 21.2 °F 52% 30.34 in 10.0 mi South 13.8 mph 19.6 mph N/A   Clear
8:56 AM 37.4 °F 31.4 °F 21.2 °F 52% 30.34 in 10.0 mi SSW 8.1 mph 20.7 mph N/A   Clear
9:16 AM 37.4 °F 30.8 °F 19.4 °F 48% 30.34 in 10.0 mi SSW 9.2 mph 20.7 mph N/A   Clear
9:36 AM 37.4 °F 29.8 °F 19.4 °F 48% 30.34 in 10.0 mi SSW 11.5 mph 17.3 mph N/A   Clear
9:56 AM 41.0 °F 35.2 °F 19.4 °F 42% 30.34 in 10.0 mi SSW 9.2 mph 16.1 mph N/A   Clear
10:16 AM 41.0 °F 35.8 °F 19.4 °F 42% 30.34 in 10.0 mi WSW 8.1 mph 16.1 mph N/A   Clear
10:36 AM 41.0 °F 31.9 °F 19.4 °F 42% 30.34 in 10.0 mi WSW 19.6 mph 26.5 mph N/A   Clear
10:56 AM 41.0 °F 31.9 °F 17.6 °F 39% 30.33 in 10.0 mi WSW 19.6 mph 31.1 mph N/A   Clear
11:16 AM 42.8 °F 34.5 °F 19.4 °F 39% 30.34 in 10.0 mi WSW 18.4 mph 23.0 mph N/A   Scattered Clouds
11:36 AM 44.6 °F 38.8 °F 19.4 °F 37% 30.34 in 10.0 mi SW 11.5 mph 24.2 mph N/A   Clear
11:56 AM 44.6 °F 38.8 °F 17.6 °F 34% 30.34 in 10.0 mi WSW 11.5 mph 20.7 mph N/A   Scattered Clouds
12:16 PM 44.6 °F 40.2 °F 17.6 °F 34% 30.34 in 10.0 mi WSW 8.1 mph 19.6 mph N/A   Scattered Clouds
12:36 PM 44.6 °F 37.4 °F 17.6 °F 34% 30.33 in 10.0 mi WSW 16.1 mph 21.9 mph N/A   Scattered Clouds
12:56 PM 44.6 °F 36.9 °F 15.8 °F 31% 30.33 in 10.0 mi West 18.4 mph 25.3 mph N/A   Scattered Clouds
1:16 PM 44.6 °F 39.2 °F 17.6 °F 34% 30.33 in 10.0 mi SW 10.4 mph 20.7 mph N/A   Scattered Clouds
1:36 PM 44.6 °F 37.8 °F 14.0 °F 29% 30.32 in 10.0 mi WSW 15.0 mph 21.9 mph N/A   Scattered Clouds
1:56 PM 46.4 °F 39.5 °F 15.8 °F 29% 30.31 in 10.0 mi WSW 17.3 mph 28.8 mph N/A   Scattered Clouds
2:16 PM 44.6 °F 37.4 °F 14.0 °F 29% 30.32 in 10.0 mi WSW 16.1 mph 21.9 mph N/A   Scattered Clouds
2:36 PM 46.4 °F 41.1 °F 14.0 °F 27% 30.31 in 10.0 mi WSW 11.5 mph 23.0 mph N/A   Scattered Clouds
2:56 PM 44.6 °F 37.2 °F 12.2 °F 27% 30.31 in 10.0 mi WSW 17.3 mph 29.9 mph N/A   Scattered Clouds
3:16 PM 44.6 °F 36.9 °F 14.0 °F 29% 30.29 in 10.0 mi WSW 18.4 mph 28.8 mph N/A   Scattered Clouds
3:36 PM 46.4 °F 40.4 °F 14.0 °F 27% 30.29 in 10.0 mi SW 13.8 mph 32.2 mph N/A   Clear
3:56 PM 44.6 °F 37.8 °F 14.0 °F 29% 30.28 in 10.0 mi WSW 15.0 mph 27.6 mph N/A   Scattered Clouds
4:16 PM 44.6 °F 36.9 °F 14.0 °F 29% 30.28 in 10.0 mi WSW 18.4 mph 24.2 mph N/A   Mostly Cloudy
4:36 PM 44.6 °F 41.4 °F 14.0 °F 29% 30.29 in 10.0 mi SSW 5.8 mph - N/A   Overcast
4:56 PM 44.6 °F 38.8 °F 15.8 °F 31% 30.28 in 10.0 mi WSW 11.5 mph 18.4 mph N/A   Overcast
5:16 PM 44.6 °F 39.2 °F 17.6 °F 34% 30.28 in 10.0 mi SW 10.4 mph 19.6 mph N/A   Overcast
5:36 PM 44.6 °F 34.2 °F 21.2 °F 39% 30.26 in 10.0 mi WSW 33.4 mph 39.1 mph N/A   Overcast
5:56 PM 41.0 °F 33.9 °F 23.0 °F 49% 30.29 in 10.0 mi WSW 12.7 mph 26.5 mph N/A   Overcast
6:16 PM 41.0 °F 35.8 °F 21.2 °F 45% 30.29 in 10.0 mi SW 8.1 mph 16.1 mph N/A   Overcast
6:36 PM 41.0 °F 36.4 °F 19.4 °F 42% 30.28 in 10.0 mi SW 6.9 mph 17.3 mph N/A   Overcast
6:56 PM 41.0 °F 35.8 °F 23.0 °F 49% 30.28 in 10.0 mi SW 8.1 mph 20.7 mph N/A   Scattered Clouds
7:16 PM 41.0 °F 34.3 °F 23.0 °F 49% 30.28 in 10.0 mi WSW 11.5 mph 23.0 mph N/A   Scattered Clouds
7:36 PM 41.0 °F 36.4 °F 23.0 °F 49% 30.28 in 10.0 mi SW 6.9 mph 17.3 mph N/A   Scattered Clouds
7:56 PM 41.0 °F 34.7 °F 21.2 °F 45% 30.28 in 10.0 mi SW 10.4 mph - N/A   Scattered Clouds
8:16 PM 41.0 °F 34.7 °F 21.2 °F 45% 30.28 in 10.0 mi SSW 10.4 mph 21.9 mph N/A   Clear
8:36 PM 39.2 °F 32.5 °F 19.4 °F 45% 30.28 in 10.0 mi SW 10.4 mph - N/A   Scattered Clouds
8:56 PM 37.4 °F 28.9 °F 17.6 °F 45% 30.28 in 10.0 mi WSW 13.8 mph 20.7 mph N/A   Scattered Clouds
9:16 PM 37.4 °F 28.9 °F 17.6 °F 45% 30.29 in 10.0 mi WSW 13.8 mph 24.2 mph N/A   Clear
9:36 PM 39.2 °F 32.5 °F 17.6 °F 42% 30.30 in 10.0 mi SW 10.4 mph 17.3 mph N/A   Clear
9:56 PM 37.4 °F 29.8 °F 17.6 °F 45% 30.30 in 10.0 mi SSW 11.5 mph - N/A   Clear
10:16 PM 39.2 °F 33.0 °F 17.6 °F 42% 30.29 in 10.0 mi SSW 9.2 mph 17.3 mph N/A   Scattered Clouds
10:36 PM 37.4 °F 29.3 °F 17.6 °F 45% 30.29 in 10.0 mi SSW 12.7 mph 19.6 mph N/A   Clear
10:56 PM 37.4 °F 28.9 °F 17.6 °F 45% 30.29 in 10.0 mi SW 13.8 mph 19.6 mph N/A   Clear
11:16 PM 37.4 °F 28.5 °F 19.4 °F 48% 30.29 in 10.0 mi SW 15.0 mph 20.7 mph N/A   Clear
11:36 PM 37.4 °F 28.9 °F 21.2 °F 52% 30.29 in 10.0 mi SW 13.8 mph 21.9 mph N/A   Clear
11:56 PM 35.6 °F 25.5 °F 19.4 °F 52% 30.28 in 10.0 mi WSW 17.3 mph 20.7 mph N/A   Clear